Location: Helsinki
(60.1699°N, 24.9384°E)
Time: 16:18:56
(UTC+02:00)

S-56A Canister/Altair - Pass Details

Date: 02 November 2020
Orbit: 633 x 2500 km, 38.9° (Epoch: 29 November)

Event Time Altitude Azimuth Distance (km) Brightness Sun altitude
Rises 06:30:31 0° 220° (SW) 3,343 10.5 -9.6°
Reaches altitude 10° 06:34:47 10° 187° (S) 2,731 10.4 -9.1°
Maximum altitude 06:36:50 12° 168° (SSE) 2,784 10.7 -8.9°
Drops below altitude 10° 06:39:07 10° 150° (SSE) 3,094 11.3 -8.6°
Sets 06:45:01 0° 122° (ESE) 4,578 13.3 -7.9°
